• In Deutschland
  • Länderverzeichnis
  • Für 7 Tage
  • Wassertemperatur
  • Satellitenkarten
  • Wetterkarte
  • Widgets
  • user-avatar
    Anmelden

    Stündliche Wetter Waghäusel

    Heute, 14 August, Dienstag

    Zeit Temperatur Niederschläge Wind Luftdruck Luftfeuchtigkeit
    00:00 +18°C° 0 mm 2 m/S 750 mmHg 85%
    01:00 +18°C° 0 mm 2 m/S 750 mmHg 87%
    02:00 +17°C° 0 mm 2 m/S 750 mmHg 88%
    03:00 +17°C° 0 mm 2 m/S 750 mmHg 89%
    04:00 +17°C° 0 mm 2 m/S 750 mmHg 90%
    05:00 +17°C° 0 mm 2 m/S 751 mmHg 88%
    06:00 +17°C° 0 mm 3 m/S 751 mmHg 87%
    07:00 +18°C° 0 mm 3 m/S 751 mmHg 85%
    08:00 +19°C° 0 mm 3 m/S 752 mmHg 77%
    09:00 +21°C° 0 mm 4 m/S 752 mmHg 69%
    10:00 +23°C° 0 mm 4 m/S 752 mmHg 61%
    11:00 +25°C° 0,1 mm 4 m/S 752 mmHg 57%
    12:00 +26°C° 0,1 mm 4 m/S 752 mmHg 53%
    13:00 +27°C° 0,1 mm 4 m/S 752 mmHg 49%
    14:00 +27°C° 0,1 mm 4 m/S 752 mmHg 49%
    15:00 +27°C° 0,1 mm 4 m/S 752 mmHg 49%
    16:00 +28°C° 0,1 mm 4 m/S 752 mmHg 49%
    17:00 +26°C° 0,2 mm 3 m/S 752 mmHg 54%
    18:00 +25°C° 0,2 mm 3 m/S 753 mmHg 60%
    19:00 +24°C° 0,2 mm 2 m/S 753 mmHg 65%
    20:00 +23°C° 0,2 mm 2 m/S 753 mmHg 69%
    21:00 +21°C° 0,2 mm 2 m/S 754 mmHg 73%
    22:00 +21°C° 0,2 mm 1 m/S 754 mmHg 77%
    23:00 +20°C° 0 mm 1 m/S 754 mmHg 79%

    Morgen, 15 August, Mittwoch

    Zeit Temperatur Niederschläge Wind Luftdruck Luftfeuchtigkeit
    00:00 +20°C° 0 mm 1 m/S 755 mmHg 82%
    01:00 +19°C° 0 mm 1 m/S 755 mmHg 84%
    02:00 +19°C° 0 mm 1 m/S 755 mmHg 85%
    03:00 +19°C° 0 mm 1 m/S 755 mmHg 87%
    04:00 +18°C° 0 mm 1 m/S 755 mmHg 88%
    05:00 +19°C° 0 mm 1 m/S 755 mmHg 86%
    06:00 +20°C° 0 mm 1 m/S 755 mmHg 84%
    07:00 +20°C° 0 mm 1 m/S 756 mmHg 82%
    08:00 +22°C° 0 mm 1 m/S 756 mmHg 75%
    09:00 +23°C° 0 mm 1 m/S 756 mmHg 68%
    10:00 +25°C° 0 mm 1 m/S 756 mmHg 61%
    11:00 +26°C° 0 mm 1 m/S 756 mmHg 57%
    12:00 +27°C° 0 mm 2 m/S 756 mmHg 53%
    13:00 +28°C° 0 mm 2 m/S 755 mmHg 49%
    14:00 +28°C° 0 mm 2 m/S 755 mmHg 48%
    15:00 +28°C° 0 mm 2 m/S 755 mmHg 47%
    16:00 +28°C° 0 mm 2 m/S 755 mmHg 47%
    17:00 +27°C° 0 mm 2 m/S 755 mmHg 51%
    18:00 +26°C° 0 mm 1 m/S 755 mmHg 55%
    19:00 +25°C° 0 mm 1 m/S 755 mmHg 60%
    20:00 +24°C° 0 mm 1 m/S 755 mmHg 63%
    21:00 +21°C° 0 mm 0 m/S 755 mmHg 66%
    22:00 +20°C° 0 mm 0 m/S 755 mmHg 69%
    23:00 +19°C° 0 mm 0 m/S 755 mmHg 71%

    übermorgen, 16 August, Donnerstag

    Zeit Temperatur Niederschläge Wind Luftdruck Luftfeuchtigkeit
    00:00 +19°C° 0 mm 0 m/S 755 mmHg 73%
    01:00 +18°C° 0 mm 0 m/S 755 mmHg 74%
    02:00 +18°C° 0 mm 0 m/S 755 mmHg 76%
    03:00 +18°C° 0 mm 0 m/S 755 mmHg 77%
    04:00 +17°C° 0 mm 0 m/S 754 mmHg 78%
    05:00 +18°C° 0 mm 0 m/S 754 mmHg 76%
    06:00 +19°C° 0 mm 0 m/S 754 mmHg 73%
    07:00 +20°C° 0 mm 0 m/S 754 mmHg 71%
    08:00 +24°C° 0 mm 1 m/S 754 mmHg 64%
    09:00 +26°C° 0 mm 1 m/S 754 mmHg 57%
    10:00 +28°C° 0 mm 1 m/S 754 mmHg 51%
    11:00 +29°C° 0 mm 1 m/S 753 mmHg 47%
    12:00 +31°C° 0 mm 1 m/S 753 mmHg 44%
    13:00 +32°C° 0 mm 1 m/S 753 mmHg 40%
    14:00 +32°C° 0 mm 1 m/S 752 mmHg 39%
    15:00 +32°C° 0 mm 1 m/S 752 mmHg 39%
    16:00 +33°C° 0 mm 1 m/S 751 mmHg 38%
    17:00 +29°C° 0 mm 0 m/S 751 mmHg 42%
    18:00 +28°C° 0 mm 0 m/S 751 mmHg 47%
    19:00 +26°C° 0 mm 0 m/S 751 mmHg 52%
    20:00 +25°C° 0 mm 0 m/S 751 mmHg 55%
    21:00 +26°C° 0 mm 1 m/S 751 mmHg 58%
    22:00 +25°C° 0 mm 1 m/S 751 mmHg 62%
    23:00 +24°C° 0 mm 1 m/S 751 mmHg 65%

    17 August, Freitag

    Zeit Temperatur Niederschläge Wind Luftdruck Luftfeuchtigkeit
    00:00 +24°C° 0 mm 1 m/S 751 mmHg 67%
    01:00 +23°C° 0 mm 1 m/S 751 mmHg 70%
    02:00 +23°C° 0,1 mm 1 m/S 751 mmHg 72%
    03:00 +22°C° 0,1 mm 1 m/S 751 mmHg 74%
    04:00 +22°C° 0,1 mm 1 m/S 751 mmHg 76%
    05:00 +22°C° 0,3 mm 1 m/S 751 mmHg 76%
    06:00 +22°C° 0,3 mm 1 m/S 752 mmHg 77%
    07:00 +23°C° 0,3 mm 2 m/S 752 mmHg 77%
    08:00 +24°C° 0,3 mm 2 m/S 752 mmHg 73%
    09:00 +25°C° 0,3 mm 2 m/S 752 mmHg 69%
    10:00 +26°C° 0,3 mm 2 m/S 753 mmHg 66%
    11:00 +26°C° 0,3 mm 3 m/S 753 mmHg 67%
    12:00 +25°C° 0,3 mm 4 m/S 753 mmHg 69%
    13:00 +25°C° 0,3 mm 4 m/S 753 mmHg 70%
    14:00 +25°C° 0,3 mm 4 m/S 754 mmHg 69%
    15:00 +25°C° 0,3 mm 4 m/S 754 mmHg 68%
    16:00 +25°C° 0,3 mm 3 m/S 754 mmHg 67%
    17:00 +24°C° 0 mm 3 m/S 755 mmHg 68%
    18:00 +23°C° 0 mm 2 m/S 755 mmHg 68%
    19:00 +23°C° 0 mm 1 m/S 755 mmHg 69%
    20:00 +22°C° 0 mm 1 m/S 756 mmHg 71%
    21:00 +21°C° 0 mm 1 m/S 756 mmHg 72%
    22:00 +20°C° 0 mm 1 m/S 757 mmHg 74%
    23:00 +19°C° 0 mm 1 m/S 757 mmHg 75%

    18 August, Samstag

    Zeit Temperatur Niederschläge Wind Luftdruck Luftfeuchtigkeit
    00:00 +19°C° 0 mm 1 m/S 757 mmHg 76%
    01:00 +18°C° 0 mm 1 m/S 757 mmHg 76%
    02:00 +18°C° 0 mm 1 m/S 757 mmHg 77%
    03:00 +16°C° 0 mm 1 m/S 757 mmHg 78%
    04:00 +15°C° 0 mm 0 m/S 757 mmHg 79%
    05:00 +16°C° 0 mm 0 m/S 758 mmHg 76%
    06:00 +16°C° 0 mm 0 m/S 758 mmHg 74%
    07:00 +17°C° 0 mm 0 m/S 758 mmHg 72%
    08:00 +19°C° 0 mm 0 m/S 758 mmHg 65%
    09:00 +21°C° 0 mm 0 m/S 758 mmHg 58%
    10:00 +24°C° 0 mm 0 m/S 758 mmHg 51%
    11:00 +24°C° 0 mm 0 m/S 758 mmHg 47%
    12:00 +27°C° 0 mm 1 m/S 758 mmHg 43%
    13:00 +28°C° 0 mm 1 m/S 757 mmHg 39%
    14:00 +28°C° 0 mm 1 m/S 757 mmHg 38%
    15:00 +28°C° 0 mm 1 m/S 757 mmHg 36%
    16:00 +28°C° 0 mm 2 m/S 757 mmHg 35%
    17:00 +27°C° 0 mm 1 m/S 757 mmHg 40%
    18:00 +26°C° 0 mm 1 m/S 757 mmHg 45%
    19:00 +24°C° 0 mm 1 m/S 757 mmHg 49%
    20:00 +23°C° 0 mm 1 m/S 757 mmHg 52%
    21:00 +22°C° 0 mm 1 m/S 757 mmHg 54%
    22:00 +21°C° 0 mm 1 m/S 758 mmHg 57%
    23:00 +20°C° 0 mm 1 m/S 758 mmHg 59%

    19 August, Sonntag

    Zeit Temperatur Niederschläge Wind Luftdruck Luftfeuchtigkeit
    00:00 +20°C° 0 mm 1 m/S 758 mmHg 62%
    01:00 +19°C° 0 mm 1 m/S 758 mmHg 64%
    02:00 +19°C° 0 mm 1 m/S 758 mmHg 66%
    03:00 +19°C° 0 mm 1 m/S 758 mmHg 68%
    04:00 +18°C° 0 mm 1 m/S 758 mmHg 71%
    05:00 +17°C° 0 mm 0 m/S 758 mmHg 69%
    06:00 +18°C° 0 mm 0 m/S 758 mmHg 68%
    07:00 +18°C° 0 mm 0 m/S 758 mmHg 67%
    08:00 +21°C° 0 mm 0 m/S 758 mmHg 61%
    09:00 +23°C° 0 mm 0 m/S 758 mmHg 54%
    10:00 +25°C° 0 mm 0 m/S 758 mmHg 48%
    11:00 +28°C° 0 mm 1 m/S 758 mmHg 44%
    12:00 +29°C° 0 mm 1 m/S 758 mmHg 41%
    13:00 +31°C° 0 mm 1 m/S 757 mmHg 38%
    14:00 +31°C° 0 mm 1 m/S 757 mmHg 38%
    15:00 +31°C° 0 mm 1 m/S 757 mmHg 37%
    16:00 +31°C° 0 mm 1 m/S 756 mmHg 37%
    17:00 +30°C° 0 mm 1 m/S 756 mmHg 42%
    18:00 +28°C° 0 mm 1 m/S 756 mmHg 47%
    19:00 +25°C° 0 mm 0 m/S 756 mmHg 52%
    20:00 +24°C° 0 mm 0 m/S 756 mmHg 55%
    21:00 +22°C° 0 mm 0 m/S 757 mmHg 57%
    22:00 +23°C° 0 mm 1 m/S 757 mmHg 60%
    23:00 +23°C° 0 mm 1 m/S 757 mmHg 62%
    Mehr zeigen